owner,sensor,date,latitude,longitude,air_pressure(mBar),qcFlag 
WAVCIS,ioos:station:WAVCIS:CSI06:1,2017-02-01T00:00:00Z,28.8667,-90.4833,1021.56,11111222 
WAVCIS,ioos:station:WAVCIS:CSI06:1,2017-02-01T01:00:00Z,28.8667,-90.4833,1021.58,11111222 
WAVCIS,ioos:station:WAVCIS:CSI06:1,2017-02-01T02:00:00Z,28.8667,-90.4833,1021.36,11111222 
WAVCIS,ioos:station:WAVCIS:CSI06:1,2017-02-01T03:00:00Z,28.8667,-90.4833,1021.09,11111222 
WAVCIS,ioos:station:WAVCIS:CSI06:1,2017-02-01T04:00:00Z,28.8667,-90.4833,1020.85,11111222 
WAVCIS,ioos:station:WAVCIS:CSI06:1,2017-02-01T05:00:00Z,28.8667,-90.4833,1020.59,11111222 
WAVCIS,ioos:station:WAVCIS:CSI06:1,2017-02-01T06:00:00Z,28.8667,-90.4833,1020.56,11111222 
WAVCIS,ioos:station:WAVCIS:CSI06:1,2017-02-01T07:00:00Z,28.8667,-90.4833,1020.4,11111222 
WAVCIS,ioos:station:WAVCIS:CSI06:1,2017-02-01T08:00:00Z,28.8667,-90.4833,1019.96,11111222 
WAVCIS,ioos:station:WAVCIS:CSI06:1,2017-02-01T09:00:00Z,28.8667,-90.4833,1019.81,11111222 
WAVCIS,ioos:station:WAVCIS:CSI06:1,2017-02-01T10:00:00Z,28.8667,-90.4833,1019.72,11111222 
WAVCIS,ioos:station:WAVCIS:CSI06:1,2017-02-01T11:00:00Z,28.8667,-90.4833,1019.85,11111222 
WAVCIS,ioos:station:WAVCIS:CSI06:1,2017-02-01T12:00:00Z,28.8667,-90.4833,1020.38,11111222 
WAVCIS,ioos:station:WAVCIS:CSI06:1,2017-02-01T13:00:00Z,28.8667,-90.4833,1020.66,11111222 
WAVCIS,ioos:station:WAVCIS:CSI06:1,2017-02-01T14:00:00Z,28.8667,-90.4833,1021.11,11111222 
WAVCIS,ioos:station:WAVCIS:CSI06:1,2017-02-01T15:00:00Z,28.8667,-90.4833,1021.49,11111222 
WAVCIS,ioos:station:WAVCIS:CSI06:1,2017-02-01T16:00:00Z,28.8667,-90.4833,1021.81,11111222 
WAVCIS,ioos:station:WAVCIS:CSI06:1,2017-02-01T17:00:00Z,28.8667,-90.4833,1021.86,11111222 
WAVCIS,ioos:station:WAVCIS:CSI06:1,2017-02-01T18:00:00Z,28.8667,-90.4833,1021.26,11111222 
WAVCIS,ioos:station:WAVCIS:CSI06:1,2017-02-01T19:00:00Z,28.8667,-90.4833,1020.48,11111222 
WAVCIS,ioos:station:WAVCIS:CSI06:1,2017-02-01T20:00:00Z,28.8667,-90.4833,1019.96,11111222 
WAVCIS,ioos:station:WAVCIS:CSI06:1,2017-02-01T21:00:00Z,28.8667,-90.4833,1019.58,11111222 
WAVCIS,ioos:station:WAVCIS:CSI06:1,2017-02-01T22:00:00Z,28.8667,-90.4833,1019.72,11111222 
WAVCIS,ioos:station:WAVCIS:CSI06:1,2017-02-01T23:00:00Z,28.8667,-90.4833,1019.83,11111222 
WAVCIS,ioos:station:WAVCIS:CSI06:1,2017-02-02T00:00:00Z,28.8667,-90.4833,1020.12,11111222 
WAVCIS,ioos:station:WAVCIS:CSI06:1,2017-02-02T01:00:00Z,28.8667,-90.4833,1020.51,11111222 
WAVCIS,ioos:station:WAVCIS:CSI06:1,2017-02-02T02:00:00Z,28.8667,-90.4833,1020.91,11111222 
WAVCIS,ioos:station:WAVCIS:CSI06:1,2017-02-02T03:00:00Z,28.8667,-90.4833,1021.12,11111222 
WAVCIS,ioos:station:WAVCIS:CSI06:1,2017-02-02T04:00:00Z,28.8667,-90.4833,1021.25,11111222 
WAVCIS,ioos:station:WAVCIS:CSI06:1,2017-02-02T05:00:00Z,28.8667,-90.4833,1021.24,11111222 
WAVCIS,ioos:station:WAVCIS:CSI06:1,2017-02-02T06:00:00Z,28.8667,-90.4833,1020.91,11111222 
WAVCIS,ioos:station:WAVCIS:CSI06:1,2017-02-02T07:00:00Z,28.8667,-90.4833,1020.7,11111222 
WAVCIS,ioos:station:WAVCIS:CSI06:1,2017-02-02T08:00:00Z,28.8667,-90.4833,1020.58,11111222 
WAVCIS,ioos:station:WAVCIS:CSI06:1,2017-02-02T09:00:00Z,28.8667,-90.4833,1020.74,11111222 
WAVCIS,ioos:station:WAVCIS:CSI06:1,2017-02-02T10:00:00Z,28.8667,-90.4833,1021.27,11111222 
WAVCIS,ioos:station:WAVCIS:CSI06:1,2017-02-02T11:00:00Z,28.8667,-90.4833,1021.56,11111222 
WAVCIS,ioos:station:WAVCIS:CSI06:1,2017-02-02T12:00:00Z,28.8667,-90.4833,1022.08,11111222 
WAVCIS,ioos:station:WAVCIS:CSI06:1,2017-02-02T13:00:00Z,28.8667,-90.4833,1022.78,11111222 
WAVCIS,ioos:station:WAVCIS:CSI06:1,2017-02-02T14:00:00Z,28.8667,-90.4833,1023.42,11111222 
WAVCIS,ioos:station:WAVCIS:CSI06:1,2017-02-02T15:00:00Z,28.8667,-90.4833,1023.81,11111222 
WAVCIS,ioos:station:WAVCIS:CSI06:1,2017-02-02T16:00:00Z,28.8667,-90.4833,1024.15,11111222 
WAVCIS,ioos:station:WAVCIS:CSI06:1,2017-02-02T17:00:00Z,28.8667,-90.4833,1023.86,11111222 
WAVCIS,ioos:station:WAVCIS:CSI06:1,2017-02-02T18:00:00Z,28.8667,-90.4833,1023.28,11111222 
WAVCIS,ioos:station:WAVCIS:CSI06:1,2017-02-02T19:00:00Z,28.8667,-90.4833,1022.64,11111222 
WAVCIS,ioos:station:WAVCIS:CSI06:1,2017-02-02T20:00:00Z,28.8667,-90.4833,1022.19,11111222 
WAVCIS,ioos:station:WAVCIS:CSI06:1,2017-02-02T21:00:00Z,28.8667,-90.4833,1021.85,11111222 
WAVCIS,ioos:station:WAVCIS:CSI06:1,2017-02-02T22:00:00Z,28.8667,-90.4833,1022.09,11111222 
WAVCIS,ioos:station:WAVCIS:CSI06:1,2017-02-02T23:00:00Z,28.8667,-90.4833,1022.09,11111222 
WAVCIS,ioos:station:WAVCIS:CSI06:1,2017-02-03T00:00:00Z,28.8667,-90.4833,1022.38,11111222 
WAVCIS,ioos:station:WAVCIS:CSI06:1,2017-02-03T01:00:00Z,28.8667,-90.4833,1022.75,11111222 
WAVCIS,ioos:station:WAVCIS:CSI06:1,2017-02-03T02:00:00Z,28.8667,-90.4833,1022.69,11111222 
WAVCIS,ioos:station:WAVCIS:CSI06:1,2017-02-03T03:00:00Z,28.8667,-90.4833,1022.87,11111222 
WAVCIS,ioos:station:WAVCIS:CSI06:1,2017-02-03T04:00:00Z,28.8667,-90.4833,1022.94,11111222 
WAVCIS,ioos:station:WAVCIS:CSI06:1,2017-02-03T05:00:00Z,28.8667,-90.4833,1022.89,11111222 
WAVCIS,ioos:station:WAVCIS:CSI06:1,2017-02-03T06:00:00Z,28.8667,-90.4833,1022.75,11111222 
WAVCIS,ioos:station:WAVCIS:CSI06:1,2017-02-03T07:00:00Z,28.8667,-90.4833,1022.34,11111222 
WAVCIS,ioos:station:WAVCIS:CSI06:1,2017-02-03T08:00:00Z,28.8667,-90.4833,1022.26,11111222 
WAVCIS,ioos:station:WAVCIS:CSI06:1,2017-02-03T09:00:00Z,28.8667,-90.4833,1022.31,11111222 
WAVCIS,ioos:station:WAVCIS:CSI06:1,2017-02-03T10:00:00Z,28.8667,-90.4833,1022.02,11111222 
WAVCIS,ioos:station:WAVCIS:CSI06:1,2017-02-03T11:00:00Z,28.8667,-90.4833,1022.22,11111222 
WAVCIS,ioos:station:WAVCIS:CSI06:1,2017-02-03T12:00:00Z,28.8667,-90.4833,1022.93,11111222 
WAVCIS,ioos:station:WAVCIS:CSI06:1,2017-02-03T13:00:00Z,28.8667,-90.4833,1023.26,11111222 
WAVCIS,ioos:station:WAVCIS:CSI06:1,2017-02-03T14:00:00Z,28.8667,-90.4833,1024.02,11111222 
WAVCIS,ioos:station:WAVCIS:CSI06:1,2017-02-03T15:00:00Z,28.8667,-90.4833,1024.65,11111222 
WAVCIS,ioos:station:WAVCIS:CSI06:1,2017-02-03T16:00:00Z,28.8667,-90.4833,1025.5,11111222 
WAVCIS,ioos:station:WAVCIS:CSI06:1,2017-02-03T17:00:00Z,28.8667,-90.4833,1025.92,11111222 
WAVCIS,ioos:station:WAVCIS:CSI06:1,2017-02-03T18:00:00Z,28.8667,-90.4833,1025.64,11111222 
WAVCIS,ioos:station:WAVCIS:CSI06:1,2017-02-03T19:00:00Z,28.8667,-90.4833,1024.63,11111222 
WAVCIS,ioos:station:WAVCIS:CSI06:1,2017-02-03T20:00:00Z,28.8667,-90.4833,1024.34,11111222 
WAVCIS,ioos:station:WAVCIS:CSI06:1,2017-02-03T21:00:00Z,28.8667,-90.4833,1024.11,11111222 
WAVCIS,ioos:station:WAVCIS:CSI06:1,2017-02-03T22:00:00Z,28.8667,-90.4833,1024.56,11111222 
WAVCIS,ioos:station:WAVCIS:CSI06:1,2017-02-03T23:00:00Z,28.8667,-90.4833,1024.92,11111222 
WAVCIS,ioos:station:WAVCIS:CSI06:1,2017-02-04T00:00:00Z,28.8667,-90.4833,1025.23,11111222 
WAVCIS,ioos:station:WAVCIS:CSI06:1,2017-02-04T01:00:00Z,28.8667,-90.4833,1026.16,11111222 
WAVCIS,ioos:station:WAVCIS:CSI06:1,2017-02-04T02:00:00Z,28.8667,-90.4833,1026.82,11111222 
WAVCIS,ioos:station:WAVCIS:CSI06:1,2017-02-04T03:00:00Z,28.8667,-90.4833,1027.49,11111222 
WAVCIS,ioos:station:WAVCIS:CSI06:1,2017-02-04T04:00:00Z,28.8667,-90.4833,1027.73,11111222 
WAVCIS,ioos:station:WAVCIS:CSI06:1,2017-02-04T05:00:00Z,28.8667,-90.4833,1027.89,11111222 
WAVCIS,ioos:station:WAVCIS:CSI06:1,2017-02-04T06:00:00Z,28.8667,-90.4833,1027.48,11111222 
WAVCIS,ioos:station:WAVCIS:CSI06:1,2017-02-04T07:00:00Z,28.8667,-90.4833,1027.0,11111222 
WAVCIS,ioos:station:WAVCIS:CSI06:1,2017-02-04T08:00:00Z,28.8667,-90.4833,1026.8,11111222 
WAVCIS,ioos:station:WAVCIS:CSI06:1,2017-02-04T09:00:00Z,28.8667,-90.4833,1026.18,11111222 
WAVCIS,ioos:station:WAVCIS:CSI06:1,2017-02-04T10:00:00Z,28.8667,-90.4833,1025.76,11111222 
WAVCIS,ioos:station:WAVCIS:CSI06:1,2017-02-04T11:00:00Z,28.8667,-90.4833,1025.76,11111222 
WAVCIS,ioos:station:WAVCIS:CSI06:1,2017-02-04T12:00:00Z,28.8667,-90.4833,1025.67,11111222 
WAVCIS,ioos:station:WAVCIS:CSI06:1,2017-02-04T13:00:00Z,28.8667,-90.4833,1026.39,11111222 
WAVCIS,ioos:station:WAVCIS:CSI06:1,2017-02-04T14:00:00Z,28.8667,-90.4833,1026.97,11111222 
WAVCIS,ioos:station:WAVCIS:CSI06:1,2017-02-04T15:00:00Z,28.8667,-90.4833,1027.58,11111222 
WAVCIS,ioos:station:WAVCIS:CSI06:1,2017-02-04T16:00:00Z,28.8667,-90.4833,1028.19,11111222 
WAVCIS,ioos:station:WAVCIS:CSI06:1,2017-02-04T17:00:00Z,28.8667,-90.4833,1028.27,11111222 
WAVCIS,ioos:station:WAVCIS:CSI06:1,2017-02-04T18:00:00Z,28.8667,-90.4833,1027.37,11111222 
WAVCIS,ioos:station:WAVCIS:CSI06:1,2017-02-04T19:00:00Z,28.8667,-90.4833,1026.22,11111222 
WAVCIS,ioos:station:WAVCIS:CSI06:1,2017-02-04T20:00:00Z,28.8667,-90.4833,1025.17,11111222 
WAVCIS,ioos:station:WAVCIS:CSI06:1,2017-02-04T21:00:00Z,28.8667,-90.4833,1024.87,11111222 
WAVCIS,ioos:station:WAVCIS:CSI06:1,2017-02-04T22:00:00Z,28.8667,-90.4833,1024.55,11111222 
WAVCIS,ioos:station:WAVCIS:CSI06:1,2017-02-04T23:00:00Z,28.8667,-90.4833,1024.64,11111222 
WAVCIS,ioos:station:WAVCIS:CSI06:1,2017-02-05T00:00:00Z,28.8667,-90.4833,1024.78,11111222 
WAVCIS,ioos:station:WAVCIS:CSI06:1,2017-02-05T01:00:00Z,28.8667,-90.4833,1025.08,11111222 
WAVCIS,ioos:station:WAVCIS:CSI06:1,2017-02-05T02:00:00Z,28.8667,-90.4833,1025.42,11111222 
WAVCIS,ioos:station:WAVCIS:CSI06:1,2017-02-05T03:00:00Z,28.8667,-90.4833,1025.17,11111222 
WAVCIS,ioos:station:WAVCIS:CSI06:1,2017-02-05T04:00:00Z,28.8667,-90.4833,1024.82,11111222 
WAVCIS,ioos:station:WAVCIS:CSI06:1,2017-02-05T05:00:00Z,28.8667,-90.4833,1024.38,11111222 
WAVCIS,ioos:station:WAVCIS:CSI06:1,2017-02-05T06:00:00Z,28.8667,-90.4833,1023.95,11111222 
WAVCIS,ioos:station:WAVCIS:CSI06:1,2017-02-05T07:00:00Z,28.8667,-90.4833,1023.48,11111222 
WAVCIS,ioos:station:WAVCIS:CSI06:1,2017-02-05T08:00:00Z,28.8667,-90.4833,1023.11,11111222 
WAVCIS,ioos:station:WAVCIS:CSI06:1,2017-02-05T09:00:00Z,28.8667,-90.4833,1022.56,11111222 
WAVCIS,ioos:station:WAVCIS:CSI06:1,2017-02-05T10:00:00Z,28.8667,-90.4833,1022.37,11111222 
WAVCIS,ioos:station:WAVCIS:CSI06:1,2017-02-05T11:00:00Z,28.8667,-90.4833,1022.48,11111222 
WAVCIS,ioos:station:WAVCIS:CSI06:1,2017-02-05T12:00:00Z,28.8667,-90.4833,1022.77,11111222 
WAVCIS,ioos:station:WAVCIS:CSI06:1,2017-02-05T13:00:00Z,28.8667,-90.4833,1023.11,11111222 
WAVCIS,ioos:station:WAVCIS:CSI06:1,2017-02-05T14:00:00Z,28.8667,-90.4833,1023.55,11111222 
WAVCIS,ioos:station:WAVCIS:CSI06:1,2017-02-05T15:00:00Z,28.8667,-90.4833,1023.91,11111222 
WAVCIS,ioos:station:WAVCIS:CSI06:1,2017-02-05T16:00:00Z,28.8667,-90.4833,1024.1,11111222 
WAVCIS,ioos:station:WAVCIS:CSI06:1,2017-02-05T17:00:00Z,28.8667,-90.4833,1024.06,11111222 
WAVCIS,ioos:station:WAVCIS:CSI06:1,2017-02-05T18:00:00Z,28.8667,-90.4833,1023.25,11111222 
WAVCIS,ioos:station:WAVCIS:CSI06:1,2017-02-05T19:00:00Z,28.8667,-90.4833,1022.09,11111222 
WAVCIS,ioos:station:WAVCIS:CSI06:1,2017-02-05T20:00:00Z,28.8667,-90.4833,1021.48,11111222 
WAVCIS,ioos:station:WAVCIS:CSI06:1,2017-02-05T21:00:00Z,28.8667,-90.4833,1020.98,11111222 
WAVCIS,ioos:station:WAVCIS:CSI06:1,2017-02-05T22:00:00Z,28.8667,-90.4833,1021.16,11111222 
WAVCIS,ioos:station:WAVCIS:CSI06:1,2017-02-05T23:00:00Z,28.8667,-90.4833,1021.18,11111222 
WAVCIS,ioos:station:WAVCIS:CSI06:1,2017-02-06T00:00:00Z,28.8667,-90.4833,1021.45,11111222 
WAVCIS,ioos:station:WAVCIS:CSI06:1,2017-02-06T01:00:00Z,28.8667,-90.4833,1021.61,11111222 
WAVCIS,ioos:station:WAVCIS:CSI06:1,2017-02-06T02:00:00Z,28.8667,-90.4833,1021.93,11111222 
WAVCIS,ioos:station:WAVCIS:CSI06:1,2017-02-06T03:00:00Z,28.8667,-90.4833,1021.99,11111222 
WAVCIS,ioos:station:WAVCIS:CSI06:1,2017-02-06T04:00:00Z,28.8667,-90.4833,1021.96,11111222 
WAVCIS,ioos:station:WAVCIS:CSI06:1,2017-02-06T05:00:00Z,28.8667,-90.4833,1021.71,11111222 
WAVCIS,ioos:station:WAVCIS:CSI06:1,2017-02-06T06:00:00Z,28.8667,-90.4833,1021.25,11111222 
WAVCIS,ioos:station:WAVCIS:CSI06:1,2017-02-06T07:00:00Z,28.8667,-90.4833,1020.98,11111222 
WAVCIS,ioos:station:WAVCIS:CSI06:1,2017-02-06T08:00:00Z,28.8667,-90.4833,1020.45,11111222 
WAVCIS,ioos:station:WAVCIS:CSI06:1,2017-02-06T09:00:00Z,28.8667,-90.4833,1019.98,11111222 
WAVCIS,ioos:station:WAVCIS:CSI06:1,2017-02-06T10:00:00Z,28.8667,-90.4833,1019.53,11111222 
WAVCIS,ioos:station:WAVCIS:CSI06:1,2017-02-06T11:00:00Z,28.8667,-90.4833,1019.57,11111222 
WAVCIS,ioos:station:WAVCIS:CSI06:1,2017-02-06T12:00:00Z,28.8667,-90.4833,1020.02,11111222 
WAVCIS,ioos:station:WAVCIS:CSI06:1,2017-02-06T13:00:00Z,28.8667,-90.4833,1020.58,11111222 
WAVCIS,ioos:station:WAVCIS:CSI06:1,2017-02-06T14:00:00Z,28.8667,-90.4833,1020.76,11111222 
WAVCIS,ioos:station:WAVCIS:CSI06:1,2017-02-06T15:00:00Z,28.8667,-90.4833,1021.23,11111222 
WAVCIS,ioos:station:WAVCIS:CSI06:1,2017-02-06T16:00:00Z,28.8667,-90.4833,1022.06,11111222 
WAVCIS,ioos:station:WAVCIS:CSI06:1,2017-02-06T17:00:00Z,28.8667,-90.4833,1022.3,11111222 
WAVCIS,ioos:station:WAVCIS:CSI06:1,2017-02-06T18:00:00Z,28.8667,-90.4833,1021.16,11111222 
WAVCIS,ioos:station:WAVCIS:CSI06:1,2017-02-06T19:00:00Z,28.8667,-90.4833,1020.17,11111222 
WAVCIS,ioos:station:WAVCIS:CSI06:1,2017-02-06T20:00:00Z,28.8667,-90.4833,1019.28,11111222 
WAVCIS,ioos:station:WAVCIS:CSI06:1,2017-02-06T21:00:00Z,28.8667,-90.4833,1018.92,11111222 
WAVCIS,ioos:station:WAVCIS:CSI06:1,2017-02-06T22:00:00Z,28.8667,-90.4833,1018.76,11111222 
WAVCIS,ioos:station:WAVCIS:CSI06:1,2017-02-06T23:00:00Z,28.8667,-90.4833,1018.44,11111222 
WAVCIS,ioos:station:WAVCIS:CSI06:1,2017-02-07T00:00:00Z,28.8667,-90.4833,1018.24,11111222 
WAVCIS,ioos:station:WAVCIS:CSI06:1,2017-02-07T01:00:00Z,28.8667,-90.4833,1017.84,11111222 
WAVCIS,ioos:station:WAVCIS:CSI06:1,2017-02-07T02:00:00Z,28.8667,-90.4833,1017.71,11111222 
WAVCIS,ioos:station:WAVCIS:CSI06:1,2017-02-07T03:00:00Z,28.8667,-90.4833,1017.11,11111222 
WAVCIS,ioos:station:WAVCIS:CSI06:1,2017-02-07T04:00:00Z,28.8667,-90.4833,1016.98,11111222 
WAVCIS,ioos:station:WAVCIS:CSI06:1,2017-02-07T05:00:00Z,28.8667,-90.4833,1016.2,11111222 
WAVCIS,ioos:station:WAVCIS:CSI06:1,2017-02-07T06:00:00Z,28.8667,-90.4833,1015.57,11111222 
WAVCIS,ioos:station:WAVCIS:CSI06:1,2017-02-07T07:00:00Z,28.8667,-90.4833,1015.13,11111222 
WAVCIS,ioos:station:WAVCIS:CSI06:1,2017-02-07T08:00:00Z,28.8667,-90.4833,1015.04,11111222 
WAVCIS,ioos:station:WAVCIS:CSI06:1,2017-02-07T09:00:00Z,28.8667,-90.4833,1014.4,11111222 
WAVCIS,ioos:station:WAVCIS:CSI06:1,2017-02-07T10:00:00Z,28.8667,-90.4833,1013.99,11111222 
WAVCIS,ioos:station:WAVCIS:CSI06:1,2017-02-07T11:00:00Z,28.8667,-90.4833,1013.72,11111222 
WAVCIS,ioos:station:WAVCIS:CSI06:1,2017-02-07T12:00:00Z,28.8667,-90.4833,1014.1,11111222 
WAVCIS,ioos:station:WAVCIS:CSI06:1,2017-02-07T13:00:00Z,28.8667,-90.4833,1014.15,11111222 
WAVCIS,ioos:station:WAVCIS:CSI06:1,2017-02-07T14:00:00Z,28.8667,-90.4833,1014.37,11111222 
WAVCIS,ioos:station:WAVCIS:CSI06:1,2017-02-07T15:00:00Z,28.8667,-90.4833,1014.5,11111222 
WAVCIS,ioos:station:WAVCIS:CSI06:1,2017-02-07T16:00:00Z,28.8667,-90.4833,1014.56,11111222 
WAVCIS,ioos:station:WAVCIS:CSI06:1,2017-02-07T17:00:00Z,28.8667,-90.4833,1013.82,11111222 
WAVCIS,ioos:station:WAVCIS:CSI06:1,2017-02-07T18:00:00Z,28.8667,-90.4833,1013.07,11111222 
WAVCIS,ioos:station:WAVCIS:CSI06:1,2017-02-07T19:00:00Z,28.8667,-90.4833,1012.01,11111222 
WAVCIS,ioos:station:WAVCIS:CSI06:1,2017-02-07T20:00:00Z,28.8667,-90.4833,1011.12,11111222 
WAVCIS,ioos:station:WAVCIS:CSI06:1,2017-02-07T21:00:00Z,28.8667,-90.4833,1010.6,11111222 
WAVCIS,ioos:station:WAVCIS:CSI06:1,2017-02-07T22:00:00Z,28.8667,-90.4833,1010.55,11111222 
WAVCIS,ioos:station:WAVCIS:CSI06:1,2017-02-07T23:00:00Z,28.8667,-90.4833,1010.6,11111222 
WAVCIS,ioos:station:WAVCIS:CSI06:1,2017-02-08T00:00:00Z,28.8667,-90.4833,1010.61,11111222 
WAVCIS,ioos:station:WAVCIS:CSI06:1,2017-02-08T01:00:00Z,28.8667,-90.4833,1010.55,11111222 
WAVCIS,ioos:station:WAVCIS:CSI06:1,2017-02-08T02:00:00Z,28.8667,-90.4833,1010.82,11111222 
WAVCIS,ioos:station:WAVCIS:CSI06:1,2017-02-08T03:00:00Z,28.8667,-90.4833,1011.15,11111222 
WAVCIS,ioos:station:WAVCIS:CSI06:1,2017-02-08T04:00:00Z,28.8667,-90.4833,1011.57,11111222 
WAVCIS,ioos:station:WAVCIS:CSI06:1,2017-02-08T05:00:00Z,28.8667,-90.4833,1011.83,11111222 
WAVCIS,ioos:station:WAVCIS:CSI06:1,2017-02-08T06:00:00Z,28.8667,-90.4833,1011.73,11111222 
WAVCIS,ioos:station:WAVCIS:CSI06:1,2017-02-08T07:00:00Z,28.8667,-90.4833,1011.47,11111222 
WAVCIS,ioos:station:WAVCIS:CSI06:1,2017-02-08T08:00:00Z,28.8667,-90.4833,1010.99,11111222 
WAVCIS,ioos:station:WAVCIS:CSI06:1,2017-02-08T09:00:00Z,28.8667,-90.4833,1010.46,11111222 
WAVCIS,ioos:station:WAVCIS:CSI06:1,2017-02-08T10:00:00Z,28.8667,-90.4833,1010.43,11111222 
WAVCIS,ioos:station:WAVCIS:CSI06:1,2017-02-08T11:00:00Z,28.8667,-90.4833,1010.55,11111222 
WAVCIS,ioos:station:WAVCIS:CSI06:1,2017-02-08T12:00:00Z,28.8667,-90.4833,1010.58,11111222 
WAVCIS,ioos:station:WAVCIS:CSI06:1,2017-02-08T13:00:00Z,28.8667,-90.4833,1011.01,11111222 
WAVCIS,ioos:station:WAVCIS:CSI06:1,2017-02-08T14:00:00Z,28.8667,-90.4833,1012.27,11111222 
WAVCIS,ioos:station:WAVCIS:CSI06:1,2017-02-08T15:00:00Z,28.8667,-90.4833,1012.61,11111222 
WAVCIS,ioos:station:WAVCIS:CSI06:1,2017-02-08T16:00:00Z,28.8667,-90.4833,1013.11,11111222 
WAVCIS,ioos:station:WAVCIS:CSI06:1,2017-02-08T17:00:00Z,28.8667,-90.4833,1012.94,11111222 
WAVCIS,ioos:station:WAVCIS:CSI06:1,2017-02-08T18:00:00Z,28.8667,-90.4833,1012.69,11111222 
WAVCIS,ioos:station:WAVCIS:CSI06:1,2017-02-08T19:00:00Z,28.8667,-90.4833,1011.94,11111222 
WAVCIS,ioos:station:WAVCIS:CSI06:1,2017-02-08T20:00:00Z,28.8667,-90.4833,1011.71,11111222 
WAVCIS,ioos:station:WAVCIS:CSI06:1,2017-02-08T21:00:00Z,28.8667,-90.4833,1011.42,11111222 
WAVCIS,ioos:station:WAVCIS:CSI06:1,2017-02-08T22:00:00Z,28.8667,-90.4833,1011.58,11111222 
WAVCIS,ioos:station:WAVCIS:CSI06:1,2017-02-08T23:00:00Z,28.8667,-90.4833,1011.89,11111222 
WAVCIS,ioos:station:WAVCIS:CSI06:1,2017-02-09T00:00:00Z,28.8667,-90.4833,1012.53,11111222 
WAVCIS,ioos:station:WAVCIS:CSI06:1,2017-02-09T01:00:00Z,28.8667,-90.4833,1013.31,11111222 
WAVCIS,ioos:station:WAVCIS:CSI06:1,2017-02-09T02:00:00Z,28.8667,-90.4833,1013.98,11111222 
WAVCIS,ioos:station:WAVCIS:CSI06:1,2017-02-09T03:00:00Z,28.8667,-90.4833,1014.98,11111222 
WAVCIS,ioos:station:WAVCIS:CSI06:1,2017-02-09T04:00:00Z,28.8667,-90.4833,1015.48,11111222 
WAVCIS,ioos:station:WAVCIS:CSI06:1,2017-02-09T05:00:00Z,28.8667,-90.4833,1015.49,11111222 
WAVCIS,ioos:station:WAVCIS:CSI06:1,2017-02-09T06:00:00Z,28.8667,-90.4833,1016.5,11111222 
WAVCIS,ioos:station:WAVCIS:CSI06:1,2017-02-09T07:00:00Z,28.8667,-90.4833,1015.43,11111222 
WAVCIS,ioos:station:WAVCIS:CSI06:1,2017-02-09T08:00:00Z,28.8667,-90.4833,1015.05,11111222 
WAVCIS,ioos:station:WAVCIS:CSI06:1,2017-02-09T09:00:00Z,28.8667,-90.4833,1016.16,11111222 
WAVCIS,ioos:station:WAVCIS:CSI06:1,2017-02-09T10:00:00Z,28.8667,-90.4833,1016.3,11111222 
WAVCIS,ioos:station:WAVCIS:CSI06:1,2017-02-09T11:00:00Z,28.8667,-90.4833,1016.89,11111222 
WAVCIS,ioos:station:WAVCIS:CSI06:1,2017-02-09T12:00:00Z,28.8667,-90.4833,1014.93,11111222 
WAVCIS,ioos:station:WAVCIS:CSI06:1,2017-02-09T13:00:00Z,28.8667,-90.4833,1021.67,11111222 
WAVCIS,ioos:station:WAVCIS:CSI06:1,2017-02-09T14:00:00Z,28.8667,-90.4833,1023.07,11111222 
WAVCIS,ioos:station:WAVCIS:CSI06:1,2017-02-09T15:00:00Z,28.8667,-90.4833,1024.15,11111222 
WAVCIS,ioos:station:WAVCIS:CSI06:1,2017-02-09T16:00:00Z,28.8667,-90.4833,1024.84,11111222 
WAVCIS,ioos:station:WAVCIS:CSI06:1,2017-02-09T17:00:00Z,28.8667,-90.4833,1025.42,11111222 
WAVCIS,ioos:station:WAVCIS:CSI06:1,2017-02-09T18:00:00Z,28.8667,-90.4833,1025.36,11111222 
WAVCIS,ioos:station:WAVCIS:CSI06:1,2017-02-09T19:00:00Z,28.8667,-90.4833,1024.4,11111222 
WAVCIS,ioos:station:WAVCIS:CSI06:1,2017-02-09T20:00:00Z,28.8667,-90.4833,1023.97,11111222 
WAVCIS,ioos:station:WAVCIS:CSI06:1,2017-02-09T21:00:00Z,28.8667,-90.4833,1024.38,11111222 
WAVCIS,ioos:station:WAVCIS:CSI06:1,2017-02-09T22:00:00Z,28.8667,-90.4833,1024.38,11111222 
WAVCIS,ioos:station:WAVCIS:CSI06:1,2017-02-09T23:00:00Z,28.8667,-90.4833,1025.13,11111222 
WAVCIS,ioos:station:WAVCIS:CSI06:1,2017-02-10T00:00:00Z,28.8667,-90.4833,1025.66,11111222 
WAVCIS,ioos:station:WAVCIS:CSI06:1,2017-02-10T01:00:00Z,28.8667,-90.4833,1026.61,11111222 
WAVCIS,ioos:station:WAVCIS:CSI06:1,2017-02-10T02:00:00Z,28.8667,-90.4833,1027.45,11111222 
WAVCIS,ioos:station:WAVCIS:CSI06:1,2017-02-10T03:00:00Z,28.8667,-90.4833,1027.85,11111222 
WAVCIS,ioos:station:WAVCIS:CSI06:1,2017-02-10T04:00:00Z,28.8667,-90.4833,1027.77,11111222 
WAVCIS,ioos:station:WAVCIS:CSI06:1,2017-02-10T05:00:00Z,28.8667,-90.4833,1027.65,11111222 
WAVCIS,ioos:station:WAVCIS:CSI06:1,2017-02-10T06:00:00Z,28.8667,-90.4833,1027.47,11111222 
WAVCIS,ioos:station:WAVCIS:CSI06:1,2017-02-10T07:00:00Z,28.8667,-90.4833,1026.96,11111222 
WAVCIS,ioos:station:WAVCIS:CSI06:1,2017-02-10T08:00:00Z,28.8667,-90.4833,1026.87,11111222 
WAVCIS,ioos:station:WAVCIS:CSI06:1,2017-02-10T09:00:00Z,28.8667,-90.4833,1026.77,11111222 
WAVCIS,ioos:station:WAVCIS:CSI06:1,2017-02-10T10:00:00Z,28.8667,-90.4833,1026.54,11111222 
WAVCIS,ioos:station:WAVCIS:CSI06:1,2017-02-10T11:00:00Z,28.8667,-90.4833,1026.47,11111222 
WAVCIS,ioos:station:WAVCIS:CSI06:1,2017-02-10T12:00:00Z,28.8667,-90.4833,1026.86,11111222 
WAVCIS,ioos:station:WAVCIS:CSI06:1,2017-02-10T13:00:00Z,28.8667,-90.4833,1027.27,11111222 
WAVCIS,ioos:station:WAVCIS:CSI06:1,2017-02-10T14:00:00Z,28.8667,-90.4833,1027.4,11111222 
WAVCIS,ioos:station:WAVCIS:CSI06:1,2017-02-10T15:00:00Z,28.8667,-90.4833,1027.87,11111222 
WAVCIS,ioos:station:WAVCIS:CSI06:1,2017-02-10T16:00:00Z,28.8667,-90.4833,1028.07,11111222 
WAVCIS,ioos:station:WAVCIS:CSI06:1,2017-02-10T17:00:00Z,28.8667,-90.4833,1028.0,11111222 
WAVCIS,ioos:station:WAVCIS:CSI06:1,2017-02-10T18:00:00Z,28.8667,-90.4833,1027.19,11111222 
WAVCIS,ioos:station:WAVCIS:CSI06:1,2017-02-10T19:00:00Z,28.8667,-90.4833,1025.97,11111222 
WAVCIS,ioos:station:WAVCIS:CSI06:1,2017-02-10T20:00:00Z,28.8667,-90.4833,1025.47,11111222 
WAVCIS,ioos:station:WAVCIS:CSI06:1,2017-02-10T21:00:00Z,28.8667,-90.4833,1024.99,11111222 
WAVCIS,ioos:station:WAVCIS:CSI06:1,2017-02-10T22:00:00Z,28.8667,-90.4833,1024.62,11111222 
WAVCIS,ioos:station:WAVCIS:CSI06:1,2017-02-10T23:00:00Z,28.8667,-90.4833,1024.22,11111222 
WAVCIS,ioos:station:WAVCIS:CSI06:1,2017-02-11T00:00:00Z,28.8667,-90.4833,1024.11,11111222 
WAVCIS,ioos:station:WAVCIS:CSI06:1,2017-02-11T01:00:00Z,28.8667,-90.4833,1024.22,11111222 
WAVCIS,ioos:station:WAVCIS:CSI06:1,2017-02-11T02:00:00Z,28.8667,-90.4833,1024.24,11111222 
WAVCIS,ioos:station:WAVCIS:CSI06:1,2017-02-11T03:00:00Z,28.8667,-90.4833,1023.64,11111222 
WAVCIS,ioos:station:WAVCIS:CSI06:1,2017-02-11T04:00:00Z,28.8667,-90.4833,1023.32,11111222 
WAVCIS,ioos:station:WAVCIS:CSI06:1,2017-02-11T05:00:00Z,28.8667,-90.4833,1022.93,11111222 
WAVCIS,ioos:station:WAVCIS:CSI06:1,2017-02-11T06:00:00Z,28.8667,-90.4833,1022.6,11111222 
WAVCIS,ioos:station:WAVCIS:CSI06:1,2017-02-11T07:00:00Z,28.8667,-90.4833,1022.38,11111222 
WAVCIS,ioos:station:WAVCIS:CSI06:1,2017-02-11T08:00:00Z,28.8667,-90.4833,1021.93,11111222 
WAVCIS,ioos:station:WAVCIS:CSI06:1,2017-02-11T09:00:00Z,28.8667,-90.4833,1021.83,11111222 
WAVCIS,ioos:station:WAVCIS:CSI06:1,2017-02-11T10:00:00Z,28.8667,-90.4833,1022.31,11111222 
WAVCIS,ioos:station:WAVCIS:CSI06:1,2017-02-11T11:00:00Z,28.8667,-90.4833,1022.8,11111222 
WAVCIS,ioos:station:WAVCIS:CSI06:1,2017-02-11T12:00:00Z,28.8667,-90.4833,1023.02,11111222 
WAVCIS,ioos:station:WAVCIS:CSI06:1,2017-02-11T13:00:00Z,28.8667,-90.4833,1023.61,11111222 
WAVCIS,ioos:station:WAVCIS:CSI06:1,2017-02-11T14:00:00Z,28.8667,-90.4833,1023.93,11111222 
WAVCIS,ioos:station:WAVCIS:CSI06:1,2017-02-11T15:00:00Z,28.8667,-90.4833,1024.34,11111222 
WAVCIS,ioos:station:WAVCIS:CSI06:1,2017-02-11T16:00:00Z,28.8667,-90.4833,1024.99,11111222 
WAVCIS,ioos:station:WAVCIS:CSI06:1,2017-02-11T17:00:00Z,28.8667,-90.4833,1025.54,11111222 
WAVCIS,ioos:station:WAVCIS:CSI06:1,2017-02-11T18:00:00Z,28.8667,-90.4833,1024.74,11111222 
WAVCIS,ioos:station:WAVCIS:CSI06:1,2017-02-11T19:00:00Z,28.8667,-90.4833,1024.39,11111222 
WAVCIS,ioos:station:WAVCIS:CSI06:1,2017-02-11T20:00:00Z,28.8667,-90.4833,1022.88,11111222 
WAVCIS,ioos:station:WAVCIS:CSI06:1,2017-02-11T21:00:00Z,28.8667,-90.4833,1022.58,11111222 
WAVCIS,ioos:station:WAVCIS:CSI06:1,2017-02-11T22:00:00Z,28.8667,-90.4833,1022.95,11111222 